Wind_Speed
22 22 21 21 22 22 23 22 22 22 23 23 22 21 20 20 19 17 16 14 13 12 11 10 10 11 12 13 13 13 12 13 14 13 12 11 10 10 10 10 10 9 9 9
22 21 20 21 22 22 23 23 23 23 23 23 23 22 21 21 20 18 17 15 14 14 13 12 11 12 13 14 14 13 14 14 14 14 13 12 10 10 10 10 9 8 9 9
21 20 20 21 22 22 22 22 22 23 24 23 23 22 22 21 21 20 19 18 16 15 14 13 13 13 14 14 14 14 15 15 14 14 12 12 11 10 9 9 8 8 8 9
21 21 21 21 21 22 21 21 22 24 25 24 24 24 22 22 22 21 20 19 17 17 16 15 14 14 15 15 14 15 15 15 15 14 13 11 10 9 9 9 8 8 8 9
21 21 21 21 20 21 20 21 23 25 26 26 25 25 22 22 22 21 20 20 18 17 17 16 15 15 15 15 15 15 15 15 14 13 13 12 11 10 9 9 9 9 9 9
21 21 21 20 20 21 22 23 24 26 27 27 25 26 24 24 23 21 20 20 19 17 17 17 17 17 16 16 16 16 15 15 14 13 13 12 11 10 10 10 10 9 9 10
20 21 21 21 21 22 22 23 24 26 27 27 25 27 25 24 23 21 20 20 19 19 18 18 18 19 17 16 16 16 16 15 14 13 13 12 11 11 11 11 11 11 10 9
20 20 20 21 21 22 22 23 24 25 25 26 26 26 24 23 22 21 21 20 20 20 19 18 18 19 17 17 16 16 16 16 16 14 14 13 12 12 12 11 11 11 11 11
22 21 21 21 20 22 22 23 23 25 25 26 26 26 25 23 23 22 21 21 20 20 19 18 17 16 16 16 16 16 16 16 16 15 14 14 14 14 13 13 13 13 13 13
23 22 22 22 22 22 23 23 24 25 26 26 26 25 24 23 23 23 22 21 20 19 18 17 16 15 15 15 16 16 17 17 16 16 16 16 16 16 15 15 14 14 14 14
24 23 22 23 23 23 24 24 24 24 26 27 26 24 22 22 22 21 21 20 19 19 19 18 17 16 16 16 16 17 17 17 16 16 16 17 17 17 17 16 16 16 16 16
24 25 24 24 24 24 25 25 25 25 26 27 25 24 22 22 21 20 20 20 19 18 18 19 18 18 17 17 17 17 16 16 16 17 17 17 18 18 18 17 17 18 17 17
25 26 26 26 26 26 26 26 26 26 26 26 25 24 22 21 20 20 20 19 19 18 18 19 20 20 19 19 17 17 16 16 17 17 17 18 19 19 18 19 19 19 19 19
26 27 27 27 27 27 27 27 26 26 26 25 24 24 22 22 22 21 20 21 21 20 20 20 21 21 21 20 19 17 17 17 17 17 17 18 18 19 19 18 18 18 19 19
27 27 27 27 26 27 28 28 28 28 27 26 25 24 23 22 21 21 21 21 21 21 21 21 21 21 21 21 20 19 19 18 18 18 18 18 18 19 19 18 18 18 19 19
27 28 28 27 27 27 28 28 29 29 28 27 25 24 23 23 23 22 22 22 22 22 22 22 21 21 21 21 20 20 20 20 19 19 18 18 19 19 19 19 18 19 20 20
27 27 28 28 27 28 29 28 28 28 28 28 26 24 24 23 23 24 23 23 22 22 22 22 21 22 22 22 21 21 21 21 21 21 20 20 19 20 20 20 20 21 21 21
28 28 28 28 27 29 27 27 27 27 27 27 26 25 25 25 24 23 23 23 23 22 22 22 23 23 23 23 23 22 22 22 22 22 21 21 21 21 21 21 21 21 22 22
28 28 28 28 27 27 26 26 27 26 26 26 26 25 24 24 24 23 23 22 23 22 22 23 23 24 24 24 24 23 24 23 23 24 22 22 22 23 23 22 23 22 22 22
27 28 28 28 28 28 26 26 26 26 26 25 25 24 24 25 25 23 24 24 24 24 24 24 25 25 25 25 25 25 25 24 24 24 24 24 25 25 24 24 24 23 23 23
25 27 28 28 29 28 27 26 26 26 25 25 25 25 25 26 25 24 25 25 26 26 26 26 26 26 26 26 25 25 25 25 25 25 25 26 24 24 25 25 25 25 24 24
24 26 28 29 29 28 27 27 26 26 25 25 25 25 25 25 25 25 25 26 27 27 27 26 26 26 26 27 26 25 25 25 24 24 25 25 24 25 26 26 25 26 25 25
24 25 26 28 28 28 28 27 27 27 26 26 25 26 26 26 26 27 27 27 26 27 27 26 26 26 26 27 26 26 26 25 24 25 25 26 26 26 26 27 26 25 24 25
23 24 25 26 26 28 27 27 27 27 27 26 26 27 28 27 27 27 28 28 28 28 27 27 27 27 27 28 27 27 26 27 27 26 26 27 27 27 27 27 27 25 25 26
22 23 24 24 25 26 27 27 27 28 28 28 27 26 27 28 28 28 28 28 29 28 28 28 29 29 29 28 29 28 27 28 28 28 27 27 28 27 27 27 27 27 26 26
20 21 22 23 24 25 25 26 26 26 27 28 28 28 27 28 28 29 29 29 29 28 28 28 29 29 30 30 29 30 29 28 28 28 28 27 27 28 28 28 28 27 27 27
Wind_Direction
243 243 243 244 242 241 241 240 237 237 240 243 244 245 245 246 248 251 254 256 262 263 264 269 278 281 284 289 294 296 301 306 306 305 299 296 293 292 290 286 283 276 269 259
243 243 243 242 240 240 241 241 237 237 241 243 242 244 246 246 246 248 248 251 254 257 263 270 279 283 284 291 292 294 300 301 302 303 295 292 291 290 288 282 280 279 271 259
243 242 242 241 239 240 242 242 238 235 238 241 242 244 245 246 247 246 249 250 253 259 263 267 275 283 289 295 297 298 300 300 299 300 295 292 287 285 284 279 274 273 271 265
241 241 242 242 241 240 239 238 235 234 237 239 243 245 244 246 247 249 251 252 255 260 264 268 272 280 289 293 294 297 298 297 298 296 295 293 288 283 280 277 273 268 266 265
242 241 242 241 242 242 239 238 237 237 239 241 243 246 243 247 250 251 252 254 257 260 263 268 272 277 283 287 290 295 294 291 291 292 290 285 284 283 281 278 278 275 270 266
243 241 240 240 240 240 237 238 238 239 240 241 243 247 246 247 251 251 252 253 256 260 263 267 270 273 276 278 283 287 287 285 285 284 283 282 277 276 276 275 277 279 274 272
243 241 239 238 237 237 237 238 239 239 240 242 244 248 249 249 251 252 252 255 257 260 265 268 269 273 274 275 278 280 280 278 280 280 278 275 270 271 271 273 277 276 273 272
242 240 239 238 238 239 241 241 242 244 244 244 245 247 250 250 251 252 253 256 259 261 266 268 270 274 273 272 271 274 276 274 274 276 275 269 264 267 269 271 272 273 270 270
240 240 240 241 240 242 243 243 244 246 247 247 247 247 251 252 256 256 256 258 261 263 265 267 271 273 270 267 268 272 273 275 270 268 270 268 266 267 267 268 269 271 270 269
240 240 238 239 240 242 243 244 243 245 248 249 250 250 253 253 255 258 257 257 259 263 263 263 267 269 267 265 266 269 271 273 271 265 263 266 270 270 268 267 267 270 272 271
243 242 239 240 240 243 243 243 245 247 250 252 254 255 256 256 255 256 258 258 258 259 260 262 265 266 267 269 270 270 271 272 270 269 265 266 270 270 269 267 265 266 269 272
245 245 242 241 241 243 244 245 246 248 250 252 256 257 257 257 256 257 258 257 257 258 258 257 259 263 265 269 274 275 273 273 271 271 266 266 269 270 269 268 267 266 266 269
246 246 245 242 242 243 243 244 246 249 251 252 256 259 258 259 258 258 257 257 255 258 258 258 260 264 265 269 273 273 273 273 273 272 267 268 270 268 268 268 267 267 265 266
246 246 246 247 247 246 244 245 246 248 250 254 258 261 260 260 259 256 256 257 257 258 258 260 262 263 265 269 271 270 269 269 272 277 276 276 273 271 271 269 268 267 266 267
245 246 246 247 247 246 246 245 245 246 249 253 257 260 259 258 259 258 259 260 260 260 259 260 261 262 263 264 267 267 266 266 270 275 276 278 275 275 272 268 268 269 268 267
247 247 247 248 247 247 247 247 247 248 249 251 254 258 259 259 258 258 259 260 260 260 261 262 262 261 262 263 265 265 266 269 271 273 272 273 274 275 272 269 269 271 271 270
249 248 248 248 247 247 245 246 249 250 251 252 253 256 258 260 259 259 259 259 260 260 260 260 260 260 261 262 263 263 265 267 269 269 271 273 273 272 273 271 272 273 273 272
249 249 248 247 247 248 250 249 250 251 250 250 253 255 257 258 257 259 259 259 259 260 260 260 260 258 260 263 265 265 265 264 265 268 269 271 273 272 273 273 272 272 273 273
248 248 249 249 249 251 249 249 250 252 251 250 252 253 254 255 256 257 258 258 257 259 261 261 261 260 261 262 265 267 269 268 266 267 268 270 272 272 272 274 273 272 272 273
248 247 249 249 251 252 250 251 252 253 252 250 251 252 254 255 256 256 257 256 256 258 261 262 263 263 264 264 265 267 269 270 271 270 270 271 273 273 272 272 272 271 271 272
249 248 249 250 252 252 253 252 251 251 252 250 251 252 254 257 257 257 257 258 260 261 263 263 263 263 265 266 268 268 269 269 269 270 270 270 273 275 273 271 273 271 270 271
250 250 250 251 252 252 252 252 251 252 252 251 253 254 255 257 258 259 259 260 262 263 264 264 264 265 266 268 269 271 272 272 272 272 271 271 275 278 277 274 273 273 269 269
249 250 250 252 253 253 252 251 252 253 253 252 254 256 257 257 259 260 259 261 264 264 264 263 264 266 268 269 270 271 271 271 272 273 274 275 276 279 279 276 275 272 271 270
251 250 252 255 254 254 253 253 253 253 253 253 254 255 257 259 260 260 261 262 265 266 264 262 263 266 268 270 270 270 268 269 271 271 274 276 277 279 279 277 275 276 276 273
254 254 254 256 256 255 255 255 255 255 256 254 255 255 255 257 260 260 261 263 264 262 263 265 265 266 268 269 270 271 269 269 269 270 272 276 278 279 279 278 277 276 277 277
257 257 256 255 255 255 255 255 256 257 257 256 257 257 258 258 259 260 262 264 264 262 263 265 267 266 267 270 270 270 272 273 273 272 273 275 277 277 278 276 276 276 275 275
Height
5830 5833 5835 5837 5838 5840 5842 5844 5846 5848 5848 5850 5851 5853 5855 5857 5858 5859 5861 5862 5863 5864 5864 5864 5864 5864 5863 5862 5862 5861 5860 5859 5858 5857 5856 5855 5854 5853 5853 5852 5851 5852 5852 5852
5826 5829 5831 5831 5833 5835 5837 5839 5842 5843 5844 5845 5847 5849 5851 5852 5854 5856 5857 5858 5860 5860 5861 5861 5861 5860 5860 5859 5858 5858 5858 5857 5855 5854 5853 5852 5851 5851 5850 5849 5849 5849 5849 5850
5822 5825 5826 5827 5829 5831 5833 5835 5837 5839 5840 5841 5843 5845 5847 5849 5850 5852 5853 5855 5856 5856 5857 5857 5857 5857 5856 5856 5855 5855 5853 5852 5851 5851 5850 5849 5849 5848 5848 5847 5847 5847 5847 5847
5817 5819 5821 5823 5825 5826 5829 5831 5833 5834 5835 5837 5839 5840 5843 5844 5846 5847 5849 5851 5852 5852 5853 5853 5853 5853 5853 5852 5851 5850 5849 5849 5848 5847 5847 5846 5845 5846 5845 5845 5844 5844 5845 5845
5813 5815 5816 5818 5821 5822 5825 5826 5828 5829 5830 5832 5834 5835 5839 5839 5841 5843 5845 5846 5847 5848 5848 5849 5849 5849 5849 5848 5847 5847 5846 5846 5845 5844 5844 5844 5843 5843 5843 5843 5842 5842 5842 5842
5808 5810 5812 5814 5816 5818 5820 5822 5823 5824 5825 5827 5830 5831 5833 5835 5837 5839 5840 5841 5842 5843 5844 5844 5845 5845 5844 5844 5844 5843 5843 5843 5842 5841 5841 5841 5840 5840 5840 5840 5840 5840 5840 5840
5804 5805 5807 5809 5811 5813 5814 5817 5818 5819 5820 5822 5825 5825 5828 5831 5832 5834 5835 5837 5837 5838 5839 5839 5839 5840 5839 5839 5839 5839 5839 5839 5838 5838 5838 5837 5837 5837 5837 5837 5837 5837 5837 5838
5799 5801 5803 5805 5807 5808 5810 5812 5814 5815 5816 5818 5819 5820 5824 5826 5827 5829 5830 5831 5832 5833 5834 5834 5835 5835 5835 5834 5834 5835 5835 5834 5834 5834 5834 5834 5834 5835 5834 5834 5834 5835 5835 5835
5794 5797 5799 5800 5802 5803 5805 5806 5809 5810 5811 5813 5814 5816 5819 5821 5822 5824 5826 5827 5828 5829 5829 5830 5830 5830 5830 5830 5830 5830 5830 5830 5830 5830 5830 5830 5830 5831 5831 5831 5831 5831 5831 5832
5789 5792 5794 5795 5796 5798 5800 5802 5803 5804 5806 5807 5809 5811 5815 5817 5818 5820 5821 5822 5823 5824 5825 5826 5826 5826 5826 5826 5826 5825 5825 5825 5825 5825 5826 5826 5826 5826 5826 5826 5827 5827 5828 5828
5783 5786 5789 5790 5791 5793 5795 5797 5798 5799 5801 5802 5804 5809 5810 5812 5814 5815 5816 5817 5818 5819 5820 5821 5822 5822 5821 5821 5821 5821 5821 5821 5820 5820 5821 5821 5822 5822 5822 5822 5823 5823 5823 5823
5777 5780 5782 5784 5786 5788 5790 5791 5793 5795 5796 5798 5799 5805 5805 5807 5809 5810 5811 5812 5813 5814 5816 5816 5817 5817 5817 5817 5817 5817 5816 5816 5816 5816 5816 5817 5817 5817 5817 5817 5818 5818 5819 5819
5771 5774 5776 5778 5781 5782 5783 5785 5788 5790 5791 5792 5794 5800 5800 5802 5803 5804 5806 5807 5808 5809 5810 5811 5812 5812 5812 5812 5812 5812 5812 5812 5811 5811 5811 5812 5812 5812 5812 5812 5813 5813 5814 5814
5765 5767 5771 5773 5774 5776 5778 5780 5782 5784 5785 5787 5790 5793 5795 5796 5797 5799 5800 5802 5803 5804 5805 5806 5806 5807 5807 5807 5807 5808 5808 5807 5807 5807 5806 5807 5807 5807 5807 5807 5807 5808 5808 5809
5759 5761 5763 5766 5767 5769 5771 5774 5776 5778 5780 5782 5785 5786 5789 5791 5792 5793 5795 5796 5797 5798 5799 5800 5801 5801 5801 5802 5802 5803 5802 5802 5802 5802 5802 5802 5802 5802 5802 5802 5803 5803 5803 5803
5752 5754 5757 5759 5761 5762 5764 5767 5769 5772 5774 5776 5779 5781 5783 5784 5786 5787 5789 5790 5791 5792 5793 5794 5794 5795 5796 5796 5797 5797 5797 5797 5797 5797 5797 5797 5797 5797 5797 5797 5797 5797 5797 5797
5746 5748 5749 5752 5754 5755 5758 5761 5763 5765 5768 5770 5773 5776 5777 5778 5780 5781 5782 5784 5785 5786 5786 5787 5788 5789 5790 5790 5791 5791 5792 5792 5792 5792 5792 5791 5791 5791 5791 5791 5791 5791 5791 5791
5739 5741 5742 5745 5747 5748 5754 5755 5756 5758 5761 5764 5766 5768 5770 5772 5773 5774 5776 5777 5778 5779 5780 5781 5781 5782 5783 5784 5784 5785 5785 5785 5786 5786 5785 5785 5785 5785 5785 5785 5784 5784 5784 5784
5732 5734 5736 5738 5740 5742 5746 5748 5750 5752 5754 5757 5759 5761 5763 5765 5766 5768 5769 5770 5772 5773 5774 5774 5775 5775 5776 5777 5777 5778 5778 5778 5779 5779 5778 5779 5779 5779 5778 5778 5778 5777 5777 5777
5726 5728 5730 5732 5733 5736 5741 5742 5743 5746 5747 5750 5752 5754 5756 5758 5760 5763 5763 5764 5765 5766 5767 5768 5768 5769 5769 5770 5770 5771 5771 5772 5772 5772 5772 5772 5772 5772 5771 5771 5771 5770 5770 5770
5719 5721 5723 5725 5726 5729 5733 5734 5736 5740 5742 5744 5745 5747 5749 5751 5754 5755 5756 5757 5758 5759 5760 5760 5761 5762 5762 5762 5763 5764 5764 5765 5765 5765 5765 5765 5764 5764 5763 5763 5763 5763 5762 5762
5713 5715 5716 5718 5720 5724 5725 5727 5730 5732 5734 5736 5738 5740 5742 5744 5746 5747 5748 5750 5750 5751 5752 5753 5753 5754 5755 5755 5755 5756 5756 5756 5756 5757 5757 5756 5756 5755 5755 5755 5754 5754 5754 5754
5706 5709 5710 5712 5715 5717 5718 5720 5722 5724 5727 5729 5731 5733 5735 5736 5738 5739 5741 5742 5743 5743 5744 5745 5746 5746 5747 5747 5747 5748 5748 5748 5749 5749 5749 5749 5748 5748 5747 5746 5746 5746 5745 5746
5700 5701 5703 5705 5707 5709 5711 5712 5715 5717 5719 5721 5723 5725 5727 5728 5730 5731 5733 5734 5735 5735 5736 5737 5737 5738 5739 5739 5739 5739 5740 5740 5741 5741 5741 5741 5740 5740 5739 5738 5738 5738 5737 5737
5694 5695 5696 5698 5700 5702 5704 5706 5708 5710 5712 5714 5716 5717 5719 5720 5722 5723 5724 5725 5726 5726 5727 5728 5729 5730 5730 5730 5731 5731 5731 5732 5732 5732 5732 5732 5731 5731 5730 5730 5730 5729 5729 5728
5689 5690 5691 5692 5694 5695 5697 5699 5701 5703 5705 5707 5708 5710 5711 5712 5714 5715 5716 5717 5717 5718 5719 5720 5720 5720 5721 5722 5722 5723 5723 5723 5723 5723 5723 5723 5723 5722 5722 5721 5721 5720 5720 5720